Weather History for Perry, IA

Change the Weather History Date:

Wednesday, November 21, 2012

  Actual Average Record
Temperature  
Mean Temperature 55 °F -  
Max Temperature 73 °F 42 °F 73 °F (2012)
Min Temperature 37 °F 21 °F 1 °F (1964)
Degree Days  
Heating Degree Days 10    
Growing Degree Days 5 (Base 50)    
Moisture  
Dew Point 39 °F    
Average Humidity 59    
Maximum Humidity 89    
Minimum Humidity 27    
Precipitation  
Precipitation 0.00 in - - ()
Sea Level Pressure  
Sea Level Pressure 30.01 in    
Wind  
Wind Speed 11 mph (South)    
Max Wind Speed 26 mph    
Max Gust Speed 31 mph    
Visibility 9 miles    
Events      
Averages and records for this station are not official NWS values.
T = Trace of Precipitation, MM = Missing Value Source: NWS Daily Summary

Daily Weather History Graph

Daily Weather History Graph

Search for Another Location

Airport:

Trip Planner

Search our weather history database for the weather conditions in past years. The results will help you decide how hot, cold, wet, or windy it might be!

Date:

Astronomy

Nov. 21, 2012 Rise Set
Actual Time 7:13 AM CST 4:51 PM CST
Civil Twilight 6:43 AM CST 5:21 PM CST
Nautical Twilight 6:09 AM CST 5:55 PM CST
Astronomical Twilight 5:36 AM CST 6:28 PM CST
Moon 1:12 PM CST (11/21) 12:28 AM CST (11/21)
Length of Visible Light 10h 37m
Length of Day
9h 37m
First Quarter, 62% of the Moon is Illuminated
Nov 21
First Quarter
Nov 28
Full
Dec 6
Last Quarter
Dec 13
New
Dec 19
First Quarter

Hourly Weather History & Observations

Time (CST) Temp. Windchill Dew Point Humidity Pressure Visibility Wind Dir Wind Speed Gust Speed Precip Events Conditions
12:15 AM 38.7 °F 32.9 °F 33.6 °F 82% 30.14 in 10.0 mi South 8.1 mph - N/A   Clear
12:35 AM 39.2 °F 34.2 °F 34.0 °F 82% 30.13 in 10.0 mi South 6.9 mph - N/A   Clear
12:55 AM 39.0 °F 34.0 °F 33.8 °F 82% 30.13 in 10.0 mi South 6.9 mph - N/A   Clear
1:15 AM 39.0 °F 32.8 °F 34.5 °F 84% 30.11 in 7.0 mi SSE 9.2 mph - N/A   Clear
1:35 AM 42.8 °F 37.0 °F 36.9 °F 80% 30.11 in 10.0 mi South 10.4 mph - N/A   Clear
1:55 AM 42.1 °F 37.7 °F 36.5 °F 81% 30.11 in 7.0 mi South 6.9 mph - N/A   Clear
2:15 AM 40.3 °F 35.5 °F 36.0 °F 85% 30.11 in 7.0 mi South 6.9 mph - N/A   Clear
2:35 AM 39.6 °F 34.7 °F 36.0 °F 87% 30.11 in 5.0 mi South 6.9 mph - N/A   Clear
2:55 AM 39.7 °F 34.9 °F 35.8 °F 86% 30.12 in 7.0 mi South 6.9 mph - N/A   Clear
3:15 AM 38.3 °F 33.2 °F 34.7 °F 87% 30.12 in 5.0 mi South 6.9 mph - N/A   Clear
3:35 AM 37.8 °F 32.5 °F 34.9 °F 89% 30.11 in 5.0 mi South 6.9 mph - N/A   Clear
3:55 AM 38.8 °F 34.6 °F 35.2 °F 87% 30.11 in 7.0 mi South 5.8 mph - N/A   Clear
4:15 AM 38.8 °F 33.8 °F 36.0 °F 89% 30.11 in 5.0 mi South 6.9 mph - N/A   Clear
4:35 AM 41.5 °F 35.4 °F 37.4 °F 85% 30.11 in 7.0 mi South 10.4 mph - N/A   Clear
4:55 AM 42.4 °F 37.5 °F 37.4 °F 82% 30.10 in 7.0 mi South 8.1 mph - N/A   Clear
5:15 AM 41.9 °F 36.9 °F 37.4 °F 84% 30.10 in 7.0 mi South 8.1 mph - N/A   Clear
5:35 AM 40.3 °F 36.3 °F 36.5 °F 86% 30.10 in 7.0 mi South 5.8 mph - N/A   Clear
5:55 AM 41.9 °F 40.0 °F 37.0 °F 83% 30.10 in 7.0 mi SSE 3.5 mph - N/A   Clear
6:15 AM 41.4 °F 36.8 °F 37.2 °F 85% 30.09 in 7.0 mi South 6.9 mph - N/A   Clear
6:35 AM 41.2 °F 36.6 °F 36.7 °F 84% 30.09 in 7.0 mi South 6.9 mph - N/A   Clear
6:55 AM 39.6 °F 34.0 °F 35.8 °F 86% 30.09 in 7.0 mi South 8.1 mph - N/A   Clear
7:15 AM 38.8 °F 32.6 °F 35.6 °F 88% 30.09 in 7.0 mi South 9.2 mph - N/A   Clear
7:35 AM 42.1 °F 37.1 °F 37.4 °F 83% 30.10 in 10.0 mi South 8.1 mph - N/A   Clear
7:55 AM 44.2 °F 39.2 °F 38.8 °F 81% 30.09 in 10.0 mi South 9.2 mph - N/A   Clear
8:15 AM 47.3 °F - 40.1 °F 76% 30.09 in 10.0 mi South 10.4 mph - N/A   Clear
8:35 AM 49.5 °F - 40.8 °F 72% 30.09 in 10.0 mi South 9.2 mph - N/A   Clear
8:55 AM 52.5 °F - 42.1 °F 68% 30.09 in 10.0 mi South 11.5 mph - N/A   Clear
9:15 AM 55.4 °F - 42.1 °F 61% 30.09 in 10.0 mi SSW 13.8 mph - N/A   Clear
9:35 AM 58.3 °F - 41.5 °F 54% 30.08 in 10.0 mi SSW 17.3 mph - N/A   Clear
9:55 AM 60.4 °F - 41.5 °F 50% 30.08 in 10.0 mi SSW 18.4 mph 23.0 mph N/A   Clear
10:15 AM 62.8 °F - 41.0 °F 45% 30.08 in 10.0 mi SW 19.6 mph 25.3 mph N/A   Clear
10:35 AM 64.4 °F - 41.0 °F 42% 30.07 in 10.0 mi SW 19.6 mph - N/A   Clear
10:55 AM 66.4 °F - 42.4 °F 42% 30.06 in 10.0 mi SSW 19.6 mph 26.5 mph N/A   Clear
11:15 AM 68.5 °F - 43.2 °F 40% 30.06 in 10.0 mi SSW 20.7 mph - N/A   Clear
11:35 AM 69.1 °F - 43.7 °F 40% 30.04 in 10.0 mi SSW 26.5 mph 31.1 mph N/A   Clear
11:55 AM 70.2 °F - 43.9 °F 39% 30.03 in 10.0 mi SSW 23.0 mph 27.6 mph N/A   Clear
12:15 PM 70.7 °F - 43.5 °F 37% 30.02 in 10.0 mi SSW 21.9 mph 27.6 mph N/A   Clear
12:35 PM 70.9 °F - 42.8 °F 36% 30.01 in 10.0 mi SSW 25.3 mph 29.9 mph N/A   Clear
12:55 PM 72.1 °F - 42.4 °F 34% 30.00 in 10.0 mi SSW 19.6 mph - N/A   Clear
1:15 PM 72.0 °F - 42.1 °F 34% 29.99 in 10.0 mi SSW 20.7 mph 27.6 mph N/A   Clear
1:55 PM 73.4 °F - 40.6 °F 31% 29.97 in 10.0 mi SSW 21.9 mph - N/A   Clear
2:15 PM 73.4 °F - 39.4 °F 29% 29.96 in 10.0 mi SSW 17.3 mph - N/A   Clear
2:35 PM 73.0 °F - 37.4 °F 27% 29.95 in 10.0 mi SSW 21.9 mph - N/A   Clear
2:55 PM 73.4 °F - 37.0 °F 27% 29.95 in 10.0 mi SSW 19.6 mph 23.0 mph N/A   Clear
3:15 PM 72.5 °F - 36.5 °F 27% 29.94 in 10.0 mi SSW 20.7 mph 26.5 mph N/A   Clear
3:35 PM 71.8 °F - 38.3 °F 30% 29.94 in 10.0 mi South 19.6 mph - N/A   Clear
3:55 PM 70.5 °F - 39.2 °F 32% 29.94 in 10.0 mi South 13.8 mph - N/A   Clear
4:15 PM 68.7 °F - 40.1 °F 35% 29.94 in 10.0 mi South 10.4 mph - N/A   Clear
4:35 PM 66.6 °F - 41.4 °F 40% 29.93 in 10.0 mi South 12.7 mph - N/A   Clear
4:55 PM 64.8 °F - 41.4 °F 42% 29.92 in 10.0 mi South 12.7 mph - N/A   Clear
5:15 PM 64.2 °F - 41.0 °F 43% 29.92 in 10.0 mi South 12.7 mph - N/A   Clear
5:35 PM 62.2 °F - 41.4 °F 46% 29.91 in 10.0 mi South 11.5 mph - N/A   Clear
5:55 PM 61.2 °F - 41.7 °F 49% 29.91 in 10.0 mi South 11.5 mph - N/A   Clear
6:15 PM 59.9 °F - 41.9 °F 51% 29.91 in 10.0 mi South 12.7 mph - N/A   Clear
6:35 PM 58.3 °F - 41.5 °F 54% 29.91 in 10.0 mi South 10.4 mph - N/A   Clear
6:55 PM 58.5 °F - 41.4 °F 53% 29.90 in 10.0 mi South 13.8 mph - N/A   Clear
7:15 PM 58.5 °F - 40.8 °F 52% 29.91 in 10.0 mi South 13.8 mph - N/A   Clear
7:35 PM 57.6 °F - 40.1 °F 52% 29.91 in 10.0 mi South 13.8 mph - N/A   Clear
7:55 PM 57.2 °F - 39.6 °F 52% 29.91 in 10.0 mi South 13.8 mph - N/A   Clear
8:15 PM 57.0 °F - 39.4 °F 52% 29.91 in 10.0 mi South 13.8 mph - N/A   Clear
8:35 PM 58.5 °F - 39.2 °F 49% 29.90 in 10.0 mi South 18.4 mph - N/A   Clear
8:55 PM 59.0 °F - 39.0 °F 48% 29.90 in 10.0 mi South 17.3 mph - N/A   Clear
9:15 PM 57.4 °F - 38.8 °F 50% 29.90 in 10.0 mi South 12.7 mph - N/A   Clear
9:35 PM 56.5 °F - 39.2 °F 52% 29.89 in 10.0 mi South 13.8 mph - N/A   Clear
9:55 PM 57.0 °F - 38.7 °F 50% 29.89 in 10.0 mi South 16.1 mph - N/A   Clear
10:15 PM 56.7 °F - 38.7 °F 51% 29.88 in 10.0 mi South 16.1 mph - N/A   Clear
10:35 PM 56.1 °F - 38.7 °F 52% 29.87 in 10.0 mi South 17.3 mph - N/A   Clear
10:55 PM 55.6 °F - 38.7 °F 53% 29.86 in 10.0 mi South 16.1 mph - N/A   Clear
11:15 PM 54.7 °F - 39.2 °F 56% 29.86 in 10.0 mi South 16.1 mph - N/A   Clear
11:35 PM 55.0 °F - 39.2 °F 55% 29.85 in 10.0 mi South 16.1 mph - N/A   Clear
11:55 PM 56.5 °F - 39.2 °F 52% 29.84 in 10.0 mi South 19.6 mph - N/A   Clear